Rogers, AR

4:28 PM CDT on April 25, 2018 (GMT -0500)
Rogers Municipal-Carter

Weather History for KROG - May, 2014

Change the Weather History Date:

Wednesday, May 28, 2014

  Actual Average Record
Temperature  
Mean Temperature 70 °F -  
Max Temperature 77 °F 74 °F 91 °F (2012)
Min Temperature 62 °F 57 °F 51 °F (2003)
Cooling Degree Days 4    
Growing Degree Days 20 (Base 50)    
Moisture  
Dew Point 62 °F    
Average Humidity 80    
Maximum Humidity 96    
Minimum Humidity 61    
Precipitation  
Precipitation 0.00 in - - ()
Sea Level Pressure  
Sea Level Pressure 29.97 in    
Wind  
Wind Speed 5 mph (ENE)    
Max Wind Speed 12 mph    
Max Gust Speed -    
Visibility 10 miles    
Events Rain    
Averages and records for this station are not official NWS values.
T = Trace of Precipitation, MM = Missing Value Source: NWS Daily Summary

Daily Weather History Graph

Daily Weather History Graph

Search for Another Location

Airport or City:

Astronomy

May. 28, 2014 Rise Set
Actual Time 6:01 AM CDT 8:26 PM CDT
Civil Twilight 5:32 AM CDT 8:55 PM CDT
Nautical Twilight 4:55 AM CDT 9:32 PM CDT
Astronomical Twilight 4:15 AM CDT 10:12 PM CDT
Moon 6:06 AM CDT (5/28) 8:27 PM CDT (5/28)
Length of Visible Light 15h 23m
Length of Day
14h 24m
Waning Crescent, 0% of the Moon is Illuminated
May 28
Waning Crescent
May 28
New
Jun 5
First Quarter
Jun 12
Full
Jun 19
Last Quarter

Hourly Weather History & Observations

Time (CDT) Temp. Dew Point Humidity Pressure Visibility Wind Dir Wind Speed Gust Speed Precip Events Conditions
12:57 AM 64.0 °F 61.0 °F 90% 29.94 in 10.0 mi East 6.9 mph - N/A   Clear
1:57 AM 63.0 °F 61.0 °F 93% 29.92 in 10.0 mi East 5.8 mph - N/A   Clear
2:19 AM 62.6 °F 60.8 °F 94% 29.95 in 10.0 mi Calm Calm - N/A   Partly Cloudy
2:57 AM 63.0 °F 61.0 °F 93% 29.93 in 10.0 mi ENE 4.6 mph - N/A   Scattered Clouds
3:17 AM 62.6 °F 60.8 °F 94% 29.96 in 10.0 mi ESE 3.5 mph - N/A   Overcast
3:27 AM 64.4 °F 60.8 °F 88% 29.95 in 10.0 mi SE 4.6 mph - 0.00 in Rain Light Rain
4:16 AM 64.4 °F 60.8 °F 88% 29.95 in 10.0 mi Calm Calm - 0.00 in Rain Light Rain
4:57 AM 64.0 °F 61.0 °F 90% 29.94 in 10.0 mi Calm Calm - 0.00 in   Overcast
5:38 AM 62.6 °F 60.8 °F 94% 29.98 in 10.0 mi NW 4.6 mph - N/A   Overcast
5:46 AM 62.6 °F 60.8 °F 94% 29.97 in 10.0 mi NNW 4.6 mph - N/A   Overcast
5:57 AM 62.1 °F 61.0 °F 96% 29.95 in 10.0 mi North 3.5 mph - N/A   Overcast
7:18 AM 64.4 °F 60.8 °F 88% 30.00 in 10.0 mi East 4.6 mph - N/A   Overcast
8:02 AM 64.4 °F 60.8 °F 88% 30.00 in 10.0 mi ENE 3.5 mph - N/A   Mostly Cloudy
8:44 AM 66.2 °F 62.6 °F 88% 30.00 in 10.0 mi NE 8.1 mph - N/A   Partly Cloudy
8:57 AM 66.9 °F 62.1 °F 84% 29.97 in 10.0 mi East 5.8 mph - N/A   Scattered Clouds
9:50 AM 69.8 °F 62.6 °F 78% 30.00 in 10.0 mi ESE 11.5 mph - N/A   Mostly Cloudy
9:57 AM 68.0 °F 62.1 °F 81% 29.97 in 10.0 mi East 10.4 mph - N/A   Mostly Cloudy
10:00 AM 68.0 °F 62.6 °F 83% 30.00 in 10.0 mi East 6.9 mph - N/A   Mostly Cloudy
10:11 AM 69.8 °F 62.6 °F 78% 30.00 in 10.0 mi East 6.9 mph - N/A   Mostly Cloudy
10:20 AM 69.8 °F 62.6 °F 78% 30.00 in 10.0 mi East 4.6 mph - N/A   Mostly Cloudy
10:42 AM 69.8 °F 62.6 °F 78% 30.00 in 10.0 mi ENE 6.9 mph - N/A   Mostly Cloudy
10:46 AM 69.8 °F 62.6 °F 78% 30.00 in 10.0 mi East 8.1 mph - N/A   Scattered Clouds
10:57 AM 71.1 °F 62.1 °F 73% 29.98 in 10.0 mi East 6.9 mph - N/A   Scattered Clouds
11:24 AM 71.6 °F 62.6 °F 73% 30.01 in 10.0 mi ENE 4.6 mph - N/A   Mostly Cloudy
11:57 AM 71.1 °F 62.1 °F 73% 29.99 in 10.0 mi Calm Calm - N/A   Overcast
12:57 PM 72.0 °F 63.0 °F 73% 29.99 in 10.0 mi East 5.8 mph - N/A   Overcast
1:49 PM 73.4 °F 62.6 °F 69% 30.02 in 10.0 mi NE 9.2 mph - N/A   Mostly Cloudy
1:57 PM 73.9 °F 63.0 °F 68% 29.98 in 10.0 mi ENE 6.9 mph - N/A   Mostly Cloudy
2:02 PM 75.2 °F 62.6 °F 65% 30.01 in 10.0 mi ENE 5.8 mph - N/A   Overcast
2:07 PM 75.2 °F 62.6 °F 65% 30.01 in 10.0 mi ENE 9.2 mph - N/A   Overcast
2:27 PM 73.4 °F 62.6 °F 69% 30.00 in 10.0 mi ENE 8.1 mph - N/A   Overcast
2:57 PM 73.9 °F 62.1 °F 66% 29.97 in 10.0 mi East 8.1 mph - N/A   Scattered Clouds
4:57 PM 75.9 °F 63.0 °F 64% 29.93 in 10.0 mi Variable 3.5 mph - N/A   Partly Cloudy
5:36 PM 77.0 °F 62.6 °F 61% 29.96 in 10.0 mi Calm Calm - N/A   Mostly Cloudy
5:43 PM 77.0 °F 62.6 °F 61% 29.95 in 10.0 mi East 8.1 mph - N/A   Scattered Clouds
5:57 PM 75.9 °F 63.0 °F 64% 29.92 in 10.0 mi ENE 8.1 mph - N/A   Mostly Cloudy
6:57 PM 73.0 °F 63.0 °F 71% 29.92 in 10.0 mi East 8.1 mph - N/A   Clear
7:57 PM 71.1 °F 63.0 °F 75% 29.92 in 10.0 mi East 4.6 mph - N/A   Clear
8:57 PM 69.1 °F 63.0 °F 81% 29.93 in 10.0 mi East 4.6 mph - N/A   Clear
10:57 PM 66.9 °F 63.0 °F 87% 29.94 in 10.0 mi East 3.5 mph - N/A   Scattered Clouds
11:57 PM 64.9 °F 62.1 °F 90% 29.94 in 10.0 mi Calm Calm - N/A   Clear